Location: Newark
(57.9389°N, 16.3988°E)
Time: 15:19:10
(UTC+00:00)

Envisat - Visible Passes

Search period start: 06 December 2019 00:00
Search period end: 16 December 2019 00:00
Orbit: 764 x 766 km, 98.1° (Epoch: 06 December)

Date Brightness Start Highest point End Pass type
(mag) Time Alt. Az. Time Alt. Az. Time Alt. Az.
06 Dec 4.3 05:26:20 10° NNE 05:31:14 44° E 05:36:05 10° S visible
06 Dec 3.7 15:11:31 10° ESE 15:15:55 30° NE 15:20:20 10° N visible
06 Dec 3.4 16:49:37 10° S 16:54:41 65° WSW 16:59:46 10° NNW visible
06 Dec 5.9 18:32:06 10° WSW 18:34:44 14° W 18:37:23 10° NW visible
07 Dec 5.3 04:49:55 10° NE 04:54:07 25° E 04:58:18 10° SE visible
07 Dec 3.0 06:28:34 10° NNE 06:33:40 72° WNW 06:38:44 10° SSW visible
07 Dec 2.9 16:12:48 10° SSE 16:17:52 73° ENE 16:22:58 10° NNW visible
07 Dec 5.2 17:53:16 10° SW 17:57:25 25° W 18:01:35 10° NW visible
08 Dec 6.0 04:14:06 10° NE 04:16:49 14° E 04:19:31 10° ESE visible
08 Dec 3.5 05:51:46 10° NNE 05:56:52 66° ESE 06:01:55 10° S visible
08 Dec 3.3 15:36:27 10° SE 15:41:13 43° ENE 15:46:01 10° N visible
08 Dec 4.2 17:15:28 10° S 17:20:19 43° W 17:25:11 10° NNW visible
09 Dec 4.6 05:15:08 10° NNE 05:19:53 37° E 05:24:35 10° SSE visible
09 Dec 3.9 15:00:33 10° ESE 15:04:44 27° NE 15:08:57 10° N visible
09 Dec 3.1 16:38:16 10° SSE 16:43:22 77° WSW 16:48:30 10° NNW visible
09 Dec 5.7 18:20:03 10° WSW 18:23:17 17° W 18:26:31 10° NW visible
10 Dec 5.6 04:38:49 10° NE 04:42:42 21° E 04:46:34 10° SE visible
10 Dec 3.0 06:17:16 10° NNE 06:22:24 84° WNW 06:27:30 10° SSW visible
10 Dec 3.0 16:01:35 10° SSE 16:06:36 62° ENE 16:11:38 10° NNW visible
10 Dec 4.9 17:41:37 10° SSW 17:46:01 29° W 17:50:28 10° NNW visible
11 Dec 6.2 04:03:27 10° ENE 04:05:20 12° E 04:07:13 10° ESE visible
11 Dec 3.8 05:40:30 10° NNE 05:45:32 56° E 05:50:32 10° S visible
11 Dec 3.5 15:25:22 10° SE 15:30:00 37° ENE 15:34:40 10° N visible
11 Dec 3.8 17:04:00 10° S 17:08:57 51° W 17:13:56 10° NNW visible
11 Dec 6.2 18:48:00 10° W 18:49:14 11° WNW 18:50:29 10° WNW visible
12 Dec 4.9 05:03:57 10° NNE 05:08:30 32° E 05:13:01 10° SSE visible
12 Dec 4.1 14:49:37 10° ESE 14:53:35 23° NE 14:57:33 10° N visible
12 Dec 3.0 16:26:58 10° SSE 16:32:04 90° SW 16:37:12 10° NNW visible
12 Dec 5.5 18:08:10 10° SW 18:11:50 20° W 18:15:32 10° NW visible
13 Dec 5.8 04:27:47 10° NE 04:31:16 18° E 04:34:44 10° SE visible
13 Dec 3.1 06:05:58 10° NNE 06:11:07 83° ESE 06:16:13 10° SSW visible
13 Dec 3.1 15:50:26 10° SE 15:55:21 53° ENE 16:00:19 10° N visible
13 Dec 4.6 17:30:01 10° SSW 17:34:38 34° W 17:39:17 10° NNW visible
14 Dec 4.1 05:29:16 10° NNE 05:34:11 47° E 05:39:06 10° S visible
14 Dec 3.7 15:14:20 10° ESE 15:18:49 32° ENE 15:23:18 10° N visible
14 Dec 3.5 16:52:35 10° S 16:57:37 61° WSW 17:02:41 10° NNW visible
14 Dec 6.0 18:35:23 10° WSW 18:37:45 13° W 18:40:06 10° NW visible
15 Dec 5.2 04:52:47 10° NNE 04:57:06 27° E 05:01:23 10° SSE visible
15 Dec 3.0 06:31:31 10° NNE 06:36:36 68° WNW 06:41:38 10° SSW visible
15 Dec 2.9 16:15:43 10° SSE 16:20:47 78° ENE 16:25:54 10° NNW visible
15 Dec 5.3 17:56:22 10° SW 18:00:24 23° W 18:04:27 10° NW visible
